Weather History for Lanai City, HI

Change the Weather History Date:

Sunday, March 3, 2013

  Actual Average Record
Temperature  
Mean Temperature 21 °C -  
Max Temperature 25 °C 23 °C 27 °C (1999)
Min Temperature 17 °C 15 °C 12 °C (1950)
Cooling Degree Days 4    
Growing Degree Days 20 (Base 50)    
Moisture  
Dew Point 12 °C    
Average Humidity 61    
Maximum Humidity 75    
Minimum Humidity 42    
Precipitation  
Precipitation 0.00 mm - - ()
Sea Level Pressure  
Sea Level Pressure 1020 hPa    
Wind  
Wind Speed 27 km/h (NE)    
Max Wind Speed 40 km/h    
Max Gust Speed 50 km/h    
Averages and records for this station are not official NWS values.
T = Trace of Precipitation, MM = Missing Value Source: NWS Daily Summary

Daily Weather History Graph

Daily Weather History Graph

Search for Another Location

Airport:

Trip Planner

Search our weather history database for the weather conditions in past years. The results will help you decide how hot, cold, wet, or windy it might be!

Date:

Astronomy

Mar. 03, 2013 Rise Set
Actual Time 6:46 AM HST 6:33 PM HST
Civil Twilight 6:23 AM HST 6:55 PM HST
Nautical Twilight 5:58 AM HST 7:21 PM HST
Astronomical Twilight 5:32 AM HST 7:47 PM HST
Moon No Moon Rise 11:01 AM HST (3/3)
Length of Visible Light 12h 31m
Length of Day
11h 47m
Waning Gibbous, 61% of the Moon is Illuminated
Mar 3
Waning Gibbous
Mar 4
Last Quarter
Mar 11
New
Mar 19
First Quarter
Mar 26
Full

Hourly Weather History & Observations

Time (HST) Temp. Dew Point Humidity Pressure Visibility Wind Dir Wind Speed Gust Speed Precip Events Conditions
12:56 AM 18.3 °C 13.8 °C 75% 1021.0 hPa - NE 33.3 km/h / 9.3 m/s 50.0 km/h / 13.9 m/s N/A   Mostly Cloudy
1:56 AM 18.3 °C 12.7 °C 70% 1020.4 hPa - NE 31.5 km/h / 8.7 m/s 46.3 km/h / 12.9 m/s N/A   Mostly Cloudy
2:56 AM 17.7 °C 11.6 °C 67% 1019.5 hPa - ENE 35.2 km/h / 9.8 m/s - N/A   Clear
3:56 AM 17.7 °C 11.6 °C 67% 1019.1 hPa - NE 27.8 km/h / 7.7 m/s - N/A   Clear
4:56 AM 17.0 °C 12.0 °C 72% 1020.5 hPa - NE 25.9 km/h / 7.2 m/s - N/A   Clear
5:56 AM 17.7 °C 11.1 °C 65% 1019.2 hPa - NE 29.6 km/h / 8.2 m/s - N/A   Clear
6:56 AM 17.2 °C 12.2 °C 72% 1020.0 hPa - NE 27.8 km/h / 7.7 m/s - N/A   Clear
7:56 AM 20.0 °C 12.0 °C 60% 1021.9 hPa - ENE 20.4 km/h / 5.7 m/s - N/A   Clear
8:56 AM 22.2 °C 12.2 °C 53% 1020.6 hPa - NE 22.2 km/h / 6.2 m/s 29.6 km/h / 8.2 m/s N/A   Clear
9:56 AM 23.3 °C 11.1 °C 46% 1020.9 hPa - SSW 14.8 km/h / 4.1 m/s - N/A   Clear
10:56 AM 24.4 °C 11.6 °C 45% 1020.7 hPa - Variable 11.1 km/h / 3.1 m/s - N/A   Mostly Cloudy
11:56 AM 25.5 °C 11.6 °C 42% 1020.2 hPa - West 18.5 km/h / 5.1 m/s - N/A   Mostly Cloudy
12:56 PM 24.4 °C 12.2 °C 46% 1019.6 hPa - Variable 5.6 km/h / 1.5 m/s - N/A   Mostly Cloudy
1:18 PM 25.0 °C 12.0 °C 44% 1020.9 hPa - NNE 25.9 km/h / 7.2 m/s 44.4 km/h / 12.3 m/s N/A   Mostly Cloudy
1:56 PM 25.5 °C 12.7 °C 45% 1018.6 hPa - NNE 33.3 km/h / 9.3 m/s 48.2 km/h / 13.4 m/s N/A   Mostly Cloudy
2:56 PM 23.8 °C 12.7 °C 50% 1018.6 hPa - NE 33.3 km/h / 9.3 m/s 40.7 km/h / 11.3 m/s N/A   Mostly Cloudy
3:12 PM 23.0 °C 13.0 °C 53% 1020.2 hPa - NE 24.1 km/h / 6.7 m/s 46.3 km/h / 12.9 m/s N/A   Mostly Cloudy
3:56 PM 22.2 °C 12.7 °C 55% 1018.7 hPa - NE 37.0 km/h / 10.3 m/s - N/A   Mostly Cloudy
4:56 PM 23.3 °C 12.2 °C 50% 1018.5 hPa - NE 37.0 km/h / 10.3 m/s 44.4 km/h / 12.3 m/s N/A   Clear
5:56 PM 20.5 °C 13.8 °C 65% 1019.2 hPa - NE 40.7 km/h / 11.3 m/s 46.3 km/h / 12.9 m/s N/A   Mostly Cloudy
6:56 PM 18.8 °C 13.8 °C 73% 1020.0 hPa - NE 31.5 km/h / 8.7 m/s - N/A   Clear
7:56 PM 18.0 °C 13.0 °C 73% 1021.9 hPa - NE 25.9 km/h / 7.2 m/s - N/A   Clear
8:56 PM 18.3 °C 13.3 °C 73% 1020.6 hPa - ENE 16.7 km/h / 4.6 m/s - N/A   Clear
9:56 PM 18.3 °C 12.7 °C 70% 1020.7 hPa - NE 33.3 km/h / 9.3 m/s - N/A   Clear
10:56 PM 18.0 °C 12.0 °C 68% 1022.6 hPa - NE 20.4 km/h / 5.7 m/s - N/A   Clear
11:56 PM 17.7 °C 13.3 °C 75% 1020.9 hPa - NE 22.2 km/h / 6.2 m/s - N/A   Clear